Location: Olsztyn
(53.7767°N, 20.4765°E)
Time: 08:48:24
(UTC+01:00)

Transit 4A - Pass Details

Date: 10 October 2022
Orbit: 871 x 972 km, 66.8° (Epoch: 06 December)

Event Time Altitude Azimuth Distance (km) Brightness Sun altitude
Exits shadow 01:36:01 23° 0° (N) 1,801 9.8 -40.6°
Drops below altitude 10° 01:40:34 10° 51° (NE) 2,545 10.7 -40.4°
Sets 01:43:35 0° 66° (ENE) 3,475 11.5 -40.2°
